San Antonio Stinson, TX

2:28 AM CDT on June 28, 2017 (GMT -0500)
Stinson Municipal

Weather History for KSSF - March, 2014

Change the Weather History Date:

Friday, March 7, 2014

  Actual Average Record
Temperature  
Mean Temperature 56 °F -  
Max Temperature 71 °F 68 °F 87 °F (2004)
Min Temperature 42 °F 49 °F 37 °F (2008)
Degree Days  
Heating Degree Days 8    
Growing Degree Days 6 (Base 50)    
Moisture  
Dew Point 44 °F    
Average Humidity 63    
Maximum Humidity 85    
Minimum Humidity 38    
Precipitation  
Precipitation 0.00 in - - ()
Sea Level Pressure  
Sea Level Pressure 29.96 in    
Wind  
Wind Speed 4 mph (SSE)    
Max Wind Speed 16 mph    
Max Gust Speed 22 mph    
Visibility 9 miles    
Events      
Averages and records for this station are not official NWS values.
T = Trace of Precipitation, MM = Missing Value Source: NWS Daily Summary

Daily Weather History Graph

Daily Weather History Graph

Search for Another Location

Airport or City:

Trip Planner

Search our weather history database for the weather conditions in past years. The results will help you decide how hot, cold, wet, or windy it might be!

Date:

Astronomy

Mar. 07, 2014 Rise Set
Actual Time 6:52 AM CST 6:37 PM CST
Civil Twilight 6:28 AM CST 7:01 PM CST
Nautical Twilight 6:01 AM CST 7:28 PM CST
Astronomical Twilight 5:33 AM CST 7:56 PM CST
Moon 11:14 AM CST (3/7) 12:16 AM CST (3/7)
Length of Visible Light 12h 32m
Length of Day
11h 44m
Waxing Crescent, 42% of the Moon is Illuminated
Mar 7
Waxing Crescent
Mar 8
First Quarter
Mar 16
Full
Mar 23
Last Quarter
Mar 30
New

Hourly Weather History & Observations

Time (CST) Temp. Dew Point Humidity Pressure Visibility Wind Dir Wind Speed Gust Speed Precip Events Conditions
12:53 AM 44.1 °F 37.0 °F 76% 30.06 in 10.0 mi Calm Calm - N/A   Clear
1:53 AM 44.1 °F 37.9 °F 79% 30.05 in 10.0 mi Calm Calm - N/A   Clear
2:53 AM 42.1 °F 37.0 °F 82% 30.02 in 10.0 mi Calm Calm - N/A   Clear
3:53 AM 42.1 °F 37.9 °F 85% 30.02 in 10.0 mi Calm Calm - N/A   Clear
4:53 AM 44.1 °F 37.9 °F 79% 30.01 in 10.0 mi Calm Calm - N/A   Clear
5:53 AM 44.1 °F 39.0 °F 82% 30.03 in 8.0 mi Calm Calm - N/A   Clear
6:53 AM 42.1 °F 37.9 °F 85% 30.05 in 6.0 mi Calm Calm - N/A   Clear
7:53 AM 48.0 °F 42.1 °F 80% 30.06 in 5.0 mi Calm Calm - N/A   Haze
8:53 AM 51.1 °F 43.0 °F 74% 30.06 in 7.0 mi SE 3.5 mph - N/A   Clear
9:53 AM 57.9 °F 45.0 °F 62% 30.05 in 10.0 mi South 9.2 mph - N/A   Clear
10:53 AM 62.1 °F 45.0 °F 53% 30.01 in 10.0 mi South 13.8 mph 19.6 mph N/A   Clear
11:53 AM 64.9 °F 46.0 °F 50% 29.99 in 10.0 mi South 10.4 mph - N/A   Clear
12:53 PM 68.0 °F 46.0 °F 45% 29.96 in 10.0 mi SSE 10.4 mph 18.4 mph N/A   Clear
1:53 PM 70.0 °F 43.0 °F 38% 29.92 in 10.0 mi South 10.4 mph - N/A   Clear
2:53 PM 70.0 °F 43.0 °F 38% 29.88 in 10.0 mi South 11.5 mph - N/A   Clear
3:53 PM 71.1 °F 45.0 °F 39% 29.87 in 10.0 mi South 11.5 mph - N/A   Clear
3:55 PM 71.1 °F 45.0 °F 39% 29.87 in 10.0 mi SSE 11.5 mph - N/A   Clear
4:53 PM 70.0 °F 46.0 °F 42% 29.85 in 10.0 mi SSE 9.2 mph - N/A   Clear
5:53 PM 70.0 °F 48.0 °F 46% 29.84 in 10.0 mi SSE 16.1 mph 21.9 mph N/A   Clear
6:53 PM 66.9 °F 48.9 °F 52% 29.86 in 10.0 mi SE 13.8 mph - N/A   Clear
7:53 PM 64.9 °F 50.0 °F 58% 29.88 in 10.0 mi SE 10.4 mph - N/A   Clear
8:53 PM 62.1 °F 50.0 °F 65% 29.90 in 10.0 mi SE 11.5 mph - N/A   Clear
9:53 PM 61.0 °F 51.1 °F 70% 29.91 in 10.0 mi SE 9.2 mph - N/A   Clear
10:53 PM 59.0 °F 51.1 °F 75% 29.91 in 10.0 mi ESE 4.6 mph - N/A   Clear
11:53 PM 57.0 °F 51.1 °F 81% 29.91 in 10.0 mi SE 3.5 mph - N/A   Mostly Cloudy